Location: Newport
(44.6370°N, 124.0520°W)
Time: 03:15:58
(UTC-08:00)

Vanguard 3 - Visible Passes

Search period start: 16 December 2017 00:00
Search period end: 26 December 2017 00:00
Orbit: 509 x 3263 km, 33.3° (Epoch: 15 December)

Date Brightness Start Highest point End Pass type
(mag) Time Alt. Az. Time Alt. Az. Time Alt. Az.
23 Dec 11.2 07:08:40 10° S 07:15:42 17° SSE 07:21:04 10° ESE visible
24 Dec 11.5 05:56:44 10° S 06:01:11 12° SSE 06:05:03 10° SE visible
25 Dec 11.0 06:50:05 10° SSW 06:59:45 22° SSE 07:06:39 10° ESE visible
